DW4554 Weather Reports


time (UTC)temp
F
wind
direction
speed
knots
gust
knots
rain 1hr
in
rain 24hr
in
rain mn
in
humidity
%
barometer
mb
20260507081905 66 205 2.6 5.2 0.00 0.00 0.00 70 1008.7
20260507081404 66 229 3.5 7.0 0.00 0.00 0.00 69 1008.6
20260507080405 65 190 0.0 2.6 0.00 0.00 0.00 69 1008.6
20260507075904 65 193 1.7 6.1 0.00 0.00 0.00 70 1008.6
20260507075404 65 228 3.5 6.1 0.00 0.00 0.00 71 1008.6
20260507074905 65 248 2.6 7.0 0.00 0.00 0.00 72 1008.6
20260507074404 65 229 4.3 8.7 0.00 0.00 0.00 71 1008.6
20260507073904 64 222 4.3 7.8 0.00 0.00 0.00 72 1008.6
20260507073404 64 246 2.6 6.1 0.00 0.00 0.00 73 1008.6
20260507072905 64 233 1.7 4.3 0.00 0.00 0.00 74 1008.6
20260507071405 62 175 0.9 4.3 0.00 0.00 0.00 75 1008.5
20260507070904 62 209 4.3 7.0 0.00 0.00 0.00 76 1008.5
20260507070404 62 192 1.7 6.1 0.00 0.00 0.00 76 1008.4
20260507065904 61 198 3.5 7.0 0.00 0.00 0.00 77 1008.4
20260507065404 61 184 2.6 4.3 0.00 0.00 0.00 77 1008.4
20260507064904 61 168 2.6 6.1 0.00 0.00 0.00 77 1008.4
20260507064404 61 203 1.7 7.0 0.00 0.00 0.00 77 1008.4
20260507063904 61 207 2.6 6.1 0.00 0.00 0.00 77 1008.4
20260507063404 61 213 1.7 5.2 0.00 0.00 0.00 77 1008.4
20260507062904 61 166 3.5 6.1 0.00 0.00 0.00 78 1008.5
20260507061905 61 152 2.6 6.1 0.00 0.00 0.00 78 1008.1
20260507061405 60 233 1.7 5.2 0.00 0.00 0.00 78 1008.0
20260507060904 60 211 1.7 2.6 0.00 0.00 0.00 79 1007.9
20260507060404 60 207 0.9 2.6 0.00 0.00 0.00 79 1007.9
20260507055919 60 207 0.9 2.6 0.00 0.00 0.00 79 1007.9
20260507055404 60 207 1.7 5.2 0.00 0.00 0.00 79 1007.8
20260507054905 60 189 0.9 4.3 0.00 0.00 0.00 79 1007.8
20260507054404 60 185 1.7 5.2 0.00 0.00 0.00 79 1007.7
20260507053904 60 206 2.6 6.1 0.00 0.00 0.00 79 1007.7
20260507053404 60 189 4.3 7.0 0.00 0.00 0.00 79 1007.7
20260507052405 60 190 2.6 6.1 0.00 0.00 0.00 79 1007.6
20260507051904 59 232 1.7 7.8 0.00 0.00 0.00 79 1007.6
20260507051405 59 213 2.6 7.0 0.00 0.00 0.00 79 1007.6
20260507050904 59 214 2.6 6.1 0.00 0.00 0.00 79 1007.5
20260507050404 59 205 1.7 5.2 0.00 0.00 0.00 79 1007.4
20260507045405 59 194 1.7 6.1 0.00 0.00 0.00 79 1007.2
20260507043905 59 188 0.9 2.6 0.00 0.00 0.00 79 1007.1
20260507043404 59 188 1.7 6.1 0.00 0.00 0.00 79 1007.1
20260507042904 59 165 0.9 4.3 0.00 0.00 0.00 79 1007.1
20260507042404 59 142 0.9 4.3 0.00 0.00 0.00 79 1007.0
20260507041905 59 138 0.9 5.2 0.00 0.00 0.00 79 1006.8
20260507041404 59 152 0.9 4.3 0.00 0.00 0.00 79 1006.8
20260507035904 60 67 0.9 2.6 0.00 0.00 0.00 79 1006.8
20260507035404 60 136 0.0 1.7 0.00 0.00 0.00 79 1006.6
20260507034905 60 136 0.9 1.7 0.00 0.00 0.00 78 1006.5
20260507034405 60 163 1.7 5.2 0.00 0.00 0.00 78 1006.5
20260507033904 60 174 1.7 4.3 0.00 0.00 0.00 78 1006.5
20260507033404 60 194 1.7 5.2 0.00 0.00 0.00 78 1006.3
20260507032904 60 117 1.7 6.1 0.00 0.00 0.00 78 1006.2
20260507032404 60 157 1.7 5.2 0.00 0.00 0.00 78 1006.2
20260507031905 60 194 1.7 5.2 0.00 0.00 0.00 78 1006.2
20260507031404 60 195 1.7 2.6 0.00 0.00 0.00 77 1006.1
20260507030904 60 207 1.7 6.1 0.00 0.00 0.00 77 1006.1
20260507030404 60 185 1.7 4.3 0.00 0.00 0.00 77 1006.2
20260507025904 60 235 2.6 6.1 0.00 0.00 0.00 77 1006.1
20260507025404 61 234 4.3 10.4 0.00 0.00 0.00 77 1006.1
20260507024405 61 118 0.9 5.2 0.00 0.00 0.00 76 1005.9
20260507023904 61 199 1.7 6.1 0.00 0.00 0.00 76 1005.9
20260507023404 61 178 1.7 7.8 0.00 0.00 0.00 76 1005.9
20260507022905 61 182 0.9 6.1 0.00 0.00 0.00 76 1005.8
20260507022404 61 219 2.6 7.0 0.00 0.00 0.00 76 1005.7
20260507020904 61 181 5.2 10.4 0.00 0.00 0.00 75 1005.5
20260507020404 61 163 5.2 10.4 0.00 0.00 0.00 74 1005.5
20260507015904 62 189 4.3 10.4 0.00 0.00 0.00 74 1005.4
20260507015405 62 183 5.2 12.2 0.00 0.00 0.00 74 1005.3
20260507014904 62 177 4.3 7.8 0.00 0.00 0.00 73 1005.3
20260507014404 62 177 2.6 8.7 0.00 0.00 0.00 73 1005.2
20260507013904 62 180 2.6 7.0 0.00 0.00 0.00 73 1005.2
20260507013404 62 185 2.6 8.7 0.00 0.00 0.00 73 1005.3
20260507012904 62 195 2.6 7.8 0.00 0.00 0.00 73 1005.3
20260507012404 62 157 1.7 6.1 0.00 0.00 0.00 73 1005.1
20260507011904 62 151 1.7 4.3 0.00 0.00 0.00 73 1005.1
20260507011405 62 136 0.9 4.3 0.00 0.00 0.00 73 1005.1
20260507010904 62 190 1.7 5.2 0.00 0.00 0.00 73 1005.0
20260507005904 62 165 2.6 7.0 0.00 0.00 0.00 73 1005.0
20260507005408 63 160 2.6 6.1 0.00 0.00 0.00 73 1004.9
20260507004405 63 160 3.5 7.8 0.00 0.00 0.00 73 1004.8
20260507003904 63 130 2.6 7.0 0.00 0.00 0.00 73 1004.7
20260507002904 63 155 2.6 7.0 0.00 0.00 0.00 73 1004.7
20260507002405 63 144 3.5 7.8 0.00 0.00 0.00 73 1004.8
20260507001904 63 143 0.9 8.7 0.00 0.00 0.00 72 1004.8
20260507001404 63 212 2.6 7.0 0.00 0.00 0.00 72 1004.8
20260507000904 63 116 2.6 6.1 0.00 0.00 0.00 72 1004.8
20260507000405 63 192 0.9 2.6 0.00 0.00 0.00 72 1004.7
20260506235904 63 302 0.9 2.6 0.00 0.00 0.00 72 1004.6
20260506234905 63 20 1.7 6.1 0.00 0.00 0.00 72 1004.7
20260506234404 63 105 2.6 6.1 0.00 0.00 0.00 72 1004.7
20260506233904 63 126 1.7 7.0 0.00 0.00 0.00 71 1004.8
20260506233404 63 193 1.7 5.2 0.00 0.00 0.00 71 1004.8
20260506232904 63 118 1.7 10.4 0.00 0.00 0.00 71 1004.6
20260506232404 63 145 2.6 7.0 0.00 0.00 0.00 71 1004.5
20260506230904 63 106 4.3 8.7 0.00 0.00 0.00 70 1004.5
20260506230404 64 105 5.2 11.3 0.00 0.00 0.00 70 1004.6
20260506225904 64 183 1.7 5.2 0.00 0.00 0.00 70 1004.6
20260506225404 64 134 1.7 4.3 0.00 0.00 0.00 70 1004.6
20260506224905 64 150 2.6 11.3 0.00 0.00 0.00 70 1004.6
20260506223905 64 143 2.6 8.7 0.00 0.00 0.00 69 1004.5
20260506223404 64 132 1.7 6.1 0.00 0.00 0.00 69 1004.4
20260506222905 64 178 3.5 7.8 0.00 0.00 0.00 69 1004.4
20260506222404 64 164 2.6 11.3 0.00 0.00 0.00 68 1004.4
20260506221904 65 159 1.7 7.0 0.00 0.00 0.00 68 1004.4
20260506221405 65 153 3.5 7.8 0.00 0.00 0.00 68 1004.2
20260506220405 65 177 6.1 17.4 0.00 0.00 0.00 67 1004.2
20260506215905 65 107 2.6 17.4 0.00 0.00 0.00 67 1004.3
20260506215404 65 149 2.6 12.2 0.00 0.00 0.00 67 1004.2
20260506214904 65 177 5.2 13.0 0.00 0.00 0.00 67 1004.2
20260506213404 66 153 1.7 13.0 0.00 0.00 0.00 66 1004.3
20260506212905 66 161 2.6 11.3 0.00 0.00 0.00 66 1004.2
20260506211904 66 192 5.2 10.4 0.00 0.00 0.00 65 1004.1
20260506211404 66 140 2.6 7.0 0.00 0.00 0.00 65 1004.1
20260506210904 66 132 2.6 6.1 0.00 0.00 0.00 65 1004.0
20260506210404 66 143 4.3 8.7 0.00 0.00 0.00 64 1004.0
20260506205904 66 168 3.5 8.7 0.00 0.00 0.00 64 1004.0
20260506205405 66 162 3.5 8.7 0.00 0.00 0.00 64 1004.0
20260506204905 66 155 2.6 6.1 0.00 0.00 0.00 64 1004.1
20260506203905 66 145 2.6 11.3 0.00 0.00 0.00 64 1004.0
20260506203405 67 109 0.9 5.2 0.00 0.00 0.00 63 1003.8
20260506202905 67 167 3.5 7.0 0.00 0.00 0.00 63 1003.8
20260506202404 67 191 3.5 7.8 0.00 0.00 0.00 63 1003.7
20260506201904 67 166 4.3 11.3 0.00 0.00 0.00 63 1003.7
20260506200904 67 153 0.0 4.3 0.00 0.00 0.00 62 1003.7
20260506195904 67 135 3.5 6.1 0.00 0.00 0.00 61 1003.7
20260506195404 68 150 1.7 5.2 0.00 0.00 0.00 61 1003.8
20260506194912 68 153 2.6 7.8 0.00 0.00 0.00 60 1003.8
20260506194404 68 149 0.9 4.3 0.00 0.00 0.00 60 1003.8
20260506193904 68 136 2.6 6.1 0.00 0.00 0.00 59 1003.8
20260506193407 68 144 4.3 10.4 0.00 0.00 0.00 59 1003.7
20260506192404 68 201 1.7 10.4 0.00 0.00 0.00 58 1003.8
20260506191905 68 158 2.6 6.1 0.00 0.00 0.00 58 1003.8
20260506191404 68 143 2.6 7.8 0.00 0.00 0.00 58 1003.7
20260506185904 69 168 1.7 7.0 0.00 0.00 0.00 56 1003.6
20260506185404 69 81 1.7 5.2 0.00 0.00 0.00 56 1003.4
20260506184904 69 87 2.6 5.2 0.00 0.00 0.00 56 1003.4
20260506184405 69 158 4.3 12.2 0.00 0.00 0.00 56 1003.4
20260506183904 70 168 1.7 5.2 0.00 0.00 0.00 55 1003.4
20260506183404 70 152 3.5 8.7 0.00 0.00 0.00 55 1003.2
20260506182904 70 153 1.7 7.0 0.00 0.00 0.00 55 1003.2
20260506182404 70 175 5.2 15.6 0.00 0.00 0.00 54 1003.2
20260506181905 70 154 1.7 11.3 0.00 0.00 0.00 55 1003.1
20260506181404 71 185 2.6 6.1 0.00 0.00 0.00 55 1003.0
20260506180404 71 190 1.7 7.0 0.00 0.00 0.00 54 1003.0
20260506175404 71 149 0.9 10.4 0.00 0.00 0.00 53 1002.9
20260506174904 71 151 3.5 10.4 0.00 0.00 0.00 53 1002.9
20260506174404 72 100 1.7 11.3 0.00 0.00 0.00 53 1003.0
20260506173904 72 138 0.9 7.8 0.00 0.00 0.00 52 1002.9
20260506173405 72 145 1.7 6.1 0.00 0.00 0.00 52 1002.9
20260506172904 72 117 0.0 5.2 0.00 0.00 0.00 51 1002.9
20260506172404 72 125 1.7 6.1 0.00 0.00 0.00 51 1003.0
20260506171904 72 157 1.7 4.3 0.00 0.00 0.00 51 1003.0
20260506171404 72 31 1.7 10.4 0.00 0.00 0.00 50 1003.0
20260506165905 73 193 4.3 10.4 0.00 0.00 0.00 50 1003.0
20260506164905 73 97 1.7 13.0 0.00 0.00 0.00 50 1003.2
20260506163904 73 111 1.7 6.1 0.00 0.00 0.00 50 1003.2
20260506163404 73 141 2.6 10.4 0.00 0.00 0.00 50 1003.3
20260506162404 73 144 1.7 10.4 0.00 0.00 0.00 51 1003.4
20260506161904 73 193 1.7 6.1 0.00 0.00 0.00 51 1003.5
20260506160905 74 104 1.7 6.1 0.00 0.00 0.00 51 1003.6
20260506160404 74 163 2.6 7.8 0.00 0.00 0.00 51 1003.6
20260506155904 74 86 3.5 13.0 0.00 0.00 0.00 52 1003.6
20260506155404 74 137 2.6 10.4 0.00 0.00 0.00 52 1003.7
20260506154904 74 148 1.7 7.0 0.00 0.00 0.00 52 1003.7
20260506154404 74 173 1.7 13.0 0.00 0.00 0.00 51 1003.7
20260506153405 74 117 2.6 6.1 0.00 0.00 0.00 51 1003.8
20260506152904 74 98 2.6 7.8 0.00 0.00 0.00 51 1004.0
20260506152404 74 173 2.6 5.2 0.00 0.00 0.00 52 1004.0
20260506151904 74 109 0.9 6.1 0.00 0.00 0.00 53 1004.0
20260506150404 74 135 2.6 12.2 0.00 0.00 0.00 52 1004.1
20260506145404 74 135 4.3 11.3 0.00 0.00 0.00 50 1004.2
20260506144905 74 124 2.6 11.3 0.00 0.00 0.00 51 1004.3
20260506144412 74 130 2.6 7.8 0.00 0.00 0.00 51 1004.3
20260506143904 75 201 5.2 13.0 0.00 0.00 0.00 51 1004.2
20260506142904 74 178 4.3 10.4 0.00 0.00 0.00 52 1004.4
20260506142404 74 175 3.5 10.4 0.00 0.00 0.00 51 1004.4
20260506141904 74 190 5.2 10.4 0.00 0.00 0.00 52 1004.5
20260506141404 74 119 2.6 7.0 0.00 0.00 0.00 52 1004.3
20260506140904 74 146 2.6 5.2 0.00 0.00 0.00 52 1004.4
20260506140404 74 113 3.5 10.4 0.00 0.00 0.00 52 1004.5
20260506134905 75 213 2.6 10.4 0.00 0.00 0.00 51 1004.7
20260506134404 75 139 2.6 7.8 0.00 0.00 0.00 51 1004.7
20260506133404 75 126 2.6 7.0 0.00 0.00 0.00 51 1004.8
20260506132905 76 153 5.2 10.4 0.00 0.00 0.00 50 1004.9
20260506132404 76 180 3.5 7.8 0.00 0.00 0.00 50 1004.9
20260506131904 76 136 5.2 7.8 0.00 0.00 0.00 51 1005.0
20260506130904 75 150 4.3 10.4 0.00 0.00 0.00 52 1005.0
20260506130405 75 184 4.3 13.9 0.00 0.00 0.00 51 1005.1
20260506125905 75 205 5.2 13.9 0.00 0.00 0.00 51 1005.2
20260506124904 75 209 5.2 14.8 0.00 0.00 0.00 51 1005.2
20260506124404 75 187 6.1 13.0 0.00 0.00 0.00 51 1005.2
20260506123904 76 183 4.3 13.0 0.00 0.00 0.00 51 1005.3
20260506122404 75 166 5.2 7.8 0.00 0.00 0.00 49 1005.3
20260506121904 75 178 1.7 8.7 0.00 0.00 0.00 50 1005.2
20260506121404 75 159 5.2 12.2 0.00 0.00 0.00 50 1005.3
20260506115904 75 203 4.3 10.4 0.00 0.00 0.00 49 1005.1
20260506115404 75 197 2.6 10.4 0.00 0.00 0.00 48 1005.1
20260506114904 75 185 6.1 10.4 0.00 0.00 0.00 50 1005.1
20260506114405 74 194 4.3 10.4 0.00 0.00 0.00 50 1005.1
20260506113904 74 220 3.5 6.1 0.00 0.00 0.00 50 1005.3
20260506113405 74 181 3.5 10.4 0.00 0.00 0.00 49 1005.3
20260506112904 74 222 4.3 11.3 0.00 0.00 0.00 50 1005.5
20260506112404 73 186 4.3 10.4 0.00 0.00 0.00 50 1005.5
20260506110904 73 220 3.5 8.7 0.00 0.00 0.00 52 1005.4
20260506110404 73 200 7.0 11.3 0.00 0.00 0.00 51 1005.5
20260506105904 73 218 5.2 13.0 0.00 0.00 0.00 51 1005.5
20260506104904 73 36 2.6 7.0 0.00 0.00 0.00 51 1005.5
20260506104404 73 203 4.3 7.8 0.00 0.00 0.00 52 1005.5
20260506103905 73 124 3.5 7.8 0.00 0.00 0.00 52 1005.6
20260506103404 73 174 3.5 7.8 0.00 0.00 0.00 52 1005.7
20260506102904 73 191 2.6 6.1 0.00 0.00 0.00 51 1005.7
20260506102404 73 135 3.5 7.0 0.00 0.00 0.00 50 1005.8
20260506101404 74 238 3.5 8.7 0.00 0.00 0.00 52 1005.8
20260506100904 73 202 2.6 5.2 0.00 0.00 0.00 52 1005.8
20260506100405 73 124 3.5 6.1 0.00 0.00 0.00 50 1005.9
20260506095904 73 117 2.6 8.7 0.00 0.00 0.00 51 1005.9
20260506095409 73 130 1.7 7.0 0.00 0.00 0.00 51 1006.0
20260506094904 73 116 4.3 7.8 0.00 0.00 0.00 52 1006.0
20260506094404 73 182 2.6 11.3 0.00 0.00 0.00 53 1006.1
20260506093404 72 233 4.3 7.8 0.00 0.00 0.00 56 1006.0
20260506092905 72 189 3.5 7.0 0.00 0.00 0.00 57 1006.1
20260506092404 71 247 2.6 4.3 0.00 0.00 0.00 59 1006.0
20260506091904 71 241 5.2 8.7 0.00 0.00 0.00 58 1006.1
20260506091404 71 192 1.7 8.7 0.00 0.00 0.00 57 1006.0
20260506090904 70 190 3.5 7.0 0.00 0.00 0.00 59 1006.2
20260506090405 70 143 1.7 7.0 0.00 0.00 0.00 57 1006.1
20260506085904 70 206 4.3 8.7 0.00 0.00 0.00 59 1006.2
20260506084904 70 178 5.2 11.3 0.00 0.00 0.00 61 1006.1
20260506084404 69 159 2.6 6.1 0.00 0.00 0.00 60 1006.1
20260506083904 69 187 4.3 10.4 0.00 0.00 0.00 61 1006.1
20260506083405 69 213 2.6 11.3 0.00 0.00 0.00 62 1006.1
20260506082905 68 230 1.7 8.7 0.00 0.00 0.00 62 1006.1
20260506082404 68 206 7.0 10.4 0.00 0.00 0.00 63 1006.2